This is the latest recevied weather packets stored in our database for station/object OE6JUE. If no packets are shown the sender has not sent any weather packets the latest 10 day(s).
| Time | Temp. | Humidity | Pressure | Rain* | Wind** | Luminosity | Snow |
|---|---|---|---|---|---|---|---|
| 1777650113 | 21.67° C | 26% | 1025.8 hPa | 0 mm | - | - | - |
| 1777649813 | 21.11° C | 26% | 1025.8 hPa | 0 mm | - | - | - |
| 1777649513 | 21.67° C | 26% | 1025.8 hPa | 0 mm | - | - | - |
| 1777649213 | 22.22° C | 25% | 1026 hPa | 0 mm | - | - | - |
| 1777648913 | 22.22° C | 25% | 1026 hPa | 0 mm | - | - | - |
| 1777648613 | 22.22° C | 26% | 1025.9 hPa | 0 mm | - | - | - |
| 1777648313 | 21.67° C | 25% | 1026.1 hPa | 0 mm | - | - | - |
| 1777648013 | 22.22° C | 26% | 1026.1 hPa | 0 mm | - | - | - |
| 1777647713 | 21.67° C | 26% | 1026.1 hPa | - | - | - | - |
| 1777647413 | 21.67° C | 25% | 1026.1 hPa | 0 mm | - | - | - |
| 1777647113 | 21.67° C | 25% | 1026.3 hPa | 0 mm | - | - | - |
| 1777646813 | 22.22° C | 25% | 1026.2 hPa | 0 mm | - | - | - |
| 1777646513 | 22.22° C | 25% | 1026.3 hPa | 0 mm | - | - | - |
| 1777646214 | 22.22° C | 25% | 1026.4 hPa | 0 mm | - | - | - |
| 1777645914 | 22.78° C | 23% | 1026.2 hPa | 0 mm | - | - | - |
| 1777645613 | 21.67° C | 25% | 1026.5 hPa | 0 mm | - | - | - |
| 1777645313 | 21.67° C | 26% | 1026.5 hPa | 0 mm | - | - | - |
| 1777645023 | 21.67° C | 26% | 1026.6 hPa | 0 mm | - | - | - |
| 1777644713 | 21.11° C | 26% | 1026.5 hPa | 0 mm | - | - | - |
| 1777644413 | 21.67° C | 30% | 1026.5 hPa | 0 mm | - | - | - |
| 1777644113 | 21.11° C | 26% | 1026.7 hPa | - | - | - | - |
| 1777643813 | 21.67° C | 25% | 1026.6 hPa | 0 mm | - | - | - |
| 1777643513 | 21.11° C | 26% | 1026.7 hPa | 0 mm | - | - | - |
| 1777643213 | 21.67° C | 25% | 1026.9 hPa | 0 mm | - | - | - |
| 1777642913 | 21.67° C | 27% | 1026.9 hPa | 0 mm | - | - | - |
* Rain latest hour (hover to see other rain measurements)
** Current wind speed in m/s (hover to see current wind gust speed)